Regional Weather Roundup
Issued by NWS Huntsville, AL

Home | Current Version | Previous Version | Text Only | Print | Product List | Glossary On
Versions: 1 2 3 4 5 6 7 8 9 10 11 12 13 14 15 16 17 18 19 20 21 22 23 24 25 26 27 28 29 30 31 32 33 34 35 36 37 38 39 40 41 42 43 44 45 46 47 48 49 50
000
ASUS44 KHUN 250410
RWRHUN

WEATHER ROUNDUP FOR THE TENNESSEE VALLEY
NATIONAL WEATHER SERVICE HUNTSVILLE AL
1000 PM CST FRI NOV 24 2017

ALZ001>004-250500-
NORTHWEST ALABAMA

CITY           SKY/WX    TMP DP  RH WIND       PRES   REMARKS
COURTLAND HCN    N/A     43 N/A N/A CALM        N/A
RUSSELLVILLE     N/A     41 N/A N/A MISG        N/A
SHOALS AIRPORT CLEAR     40  30  67 S6        29.95F
SHOALS TVA RES   N/A     39 N/A N/A MISG        N/A
$$

ALZ005>007-016-250500-
NORTH CENTRAL ALABAMA

CITY           SKY/WX    TMP DP  RH WIND       PRES   REMARKS
CULLMAN AG STN   N/A     39 N/A N/A CALM        N/A
DECATUR AP     CLEAR     41  39  93 SE5       29.97R
HUNTSVILLE AP  CLEAR     44  41  89 E5        29.96S
MERIDIANVILLE  CLEAR     39  37  93 CALM      29.96S
REDSTONE ARSN  CLEAR     46  41  82 SW3       29.95F
VINEMONT AP    FAIR      44  39  83 S3        29.98S
$$

ALZ008>010-250500-
NORTHEAST ALABAMA

CITY           SKY/WX    TMP DP  RH WIND       PRES   REMARKS
ALBERTVILLE    CLEAR     48  46  93 S3        29.96S
FORT PAYNE     CLEAR     37  36  93 CALM      29.97S
SCOTTSBORO AP  CLEAR     43  43 100 CALM      29.97S
SCOTTSBORO HCN   N/A     39 N/A N/A MISG        N/A
VALLEY HEAD      N/A     39 N/A N/A MISG        N/A
$$

TNZ076-096-097-250500-
SOUTHEASTERN MIDDLE TENNESSEE

CITY           SKY/WX    TMP DP  RH WIND       PRES   REMARKS
TULLAHOMA      CLEAR     45  39  81 S6G14     29.93S
WINCHESTER     CLEAR     37  36  93 S3        29.95F
$$

...SURROUNDING SITES...

CITY           SKY/WX    TMP DP  RH WIND       PRES   REMARKS
ATLANTA        PTCLDY    49  43  80 SW3       29.99R
ANNISTON       CLEAR     42  40  92 CALM      29.99S
BIRMINGHAM     CLEAR     45  42  89 CALM      30.00F
CHATTANOOGA    PTCLDY    45  39  79 CALM      29.97S
CORINTH        FAIR      41  30  65 S6        29.91F
DALTON         CLEAR     39  39 100 CALM      30.00R
GADSDEN        CLEAR     41  41 100 CALM      29.98F
GOLDEN TRNGL   CLEAR     45  30  55 S6        29.97S
HALEYVILLE     FAIR      40  35  83 CALM      29.98S
JACKSON TN     CLEAR     53  31  42 S14       29.88S
MEMPHIS        MOCLDY    55  30  38 S12G28    29.88F
NASHVILLE      CLEAR     47  32  56 S8        29.89F
OXFORD MS      FAIR      45  32  61 S7        29.94F
ROME           CLEAR     41  40  96 CALM      29.97S
SAVANNAH       CLEAR     48  28  46 S5        29.90F
SELMER           N/A     50  25  37 S7        29.90S
TUPELO         PTCLDY    45  28  51 S7        29.94S
TUSCALOOSA     CLEAR     43  42  97 CALM      29.99R
$$

...GULF COAST WEATHER...

CITY           SKY/WX    TMP DP  RH WIND       PRES   REMARKS
GULFPORT       CLEAR     41  38  89 CALM      30.00S
PASCAGOULA     CLEAR     37  34  89 CALM      30.00S FOG
MOBILE         CLEAR     43  40  89 S3        30.00S
GULF SHORES    CLEAR     45  45 100 CALM      30.00R
PENSACOLA      CLEAR     49  47  93 NW3       29.99R
DESTIN         PTCLDY    56  50  80 CALM      29.98S
PANAMA CITY    CLEAR     50  48  94 CALM      30.00R
APPALACHICOLA  CLEAR     51  51 100 CALM      30.00R
$$




USA.gov is the U.S. government's official web portal to all federal, state and local government web resources and services.